Find Starlink 31462

NORAD ID: 59466 Int'l Des: 2024-068 Owner: SPXS Country: US Constellation: starlink operational
LEOCIRCULAR

Current View

Loading 3D Globe...

About Starlink 31462

Starlink 31462 (NORAD 59466) is a starlink constellation satellite (v2 mini) launched Apr 10, 2024 by SPXS of US. It operates in LEO, CIRCULAR orbit with a mass of 730.00 kg.

About Starlink 31462

Description loading...

Upcoming Passes

Passes for default location (London). Set your location on the main map for personalized predictions.

Altitude History

Loading altitude history...

Two-Line Element Set

1 59466U 24068M 26169.45045307 .00002912 00000-0 11526-3 0 9994
2 59466 43.0017 185.3828 0001587 282.1093 77.9581 15.27588664123935
Epoch: Jun 18, 2026 • Age: 15 hours

Current Status

Altitude 489.2 km
Velocity 7.62 km/s
Sub-Earth Point -26.27°S, 97.87°E
Launch Date Apr 10, 2024
Age 2.1 years
Type internet

Technical Details

Classification Payload
Mass 730.00 kg
Dry Mass 700.00 kg
Total Mass 730.00 kg
Length 0.30 m
Diameter 4.10 m
Span 29.00 m
Shape Box + pan
Manufacturer SPXS
Bus Type Starlink V2M
Phase Status In Orbit
Owner/State SPXS/US

Most Searched